Погода в Петрозаводске

Погода в Петрозаводске : погода сейчас, прогноз погоды и архив. Всё, что Вы хотите узнать о погоде в Петрозаводске!

Хотите узнать прогноз погоды в Петрозаводске? Тогда Вам сюда: Погода в Петрозаводске

Поиск расширенной информации на нашем сайте:

Полезная информация:

Другие новости

Новости СМИ2

Главная страница сайта

Новости сайта

03.07.2017

Напоминаем, что на нашем специализированном сайте Метеоцентр.Азия вы можете получить высокодетализированные автоматические прогнозы погоды по пунктам России, СНГ и мира в авиационном формате (включающие направление и скорость ветра, видимость, явления погоды, количество и форму облачности, нижнюю и верхнюю границу облачности).

Рекомендуем:

Погода в Петрозаводске - сегодня

Время (UTC), дата Ветер
(°,м/с) 
Видим.   Явления Облачность Т
(°С)
Тd
(°С)
f(%) Тe
(°С)
Pmin
(гПа)
dP
(гПа)
Po
(мм)
O2
(г/м3)
Тmin Tmax R s Состояние
почвы
00 22.05.19 010 (С) 4000 м  слаб. дождь  10/10 100 м 
[Frnb|Ns]
+9.7 +9.5 99 +12  1014.4  -0.5  751  290           
03 22.05.19 030 (СВ) 6000 м  в посл. час туман{дождь}  10/10 100 м 
[St]
+10.1 +9.8 98 +12  1014  -0.3  751  290  +8.7    0.1     
06 22.05.19 080 (В) 28000 м  {дождь, туман}  10/4 600 м средняя 
[Sc|Ac trans]
+11.3 +9.3 87 +11  1013.7  -0.3  750  289  +8.7    0.1    влажная 
09 22.05.19 110 (В) 30000 м  {ливн. осадки}  9/3 600 м средняя, верхняя 
[Cu med, cong|Ac trans|Ci fib]
+14.9 +8.6 66 +15  1013  -0.5  750  285           
12 22.05.19 110 (В) 35000 м  {ливн. осадки}  9/0 верхняя 
[Ci sp]
+15.5 +7.3 58 +16  1011.8  -1.2  749  284           
15 22.05.19 090 (В) 30000 м    10/3 600 м средняя 
[Sc|Ac As]
+14.3 +8 66 +14  1010.1  -1.7  748  285      0.0     
18 22.05.19 060 (СВ) 15000 м  слаб. дождь  10/0 средняя 
[Ac As]
+11.8 +9 83 +13  1008.9  -1.3  747  287    +16.2  0.0     
21 22.05.19 050 (СВ) 4000 м  дождь  10/4 600 м средняя 
[Sc|As op]
+10.4 +9.6 95 +12  1008.9  -0.1  747  288           
00 23.05.19 030 (СВ) 10 км  слаб. дождь  10/8 200 м средняя 
[Frnb|As op]
+4.3 +3.6 95 +3  1011.4  2.2  748  296           
03 23.05.19 050 (СВ) 21000 м  {дождь}  10/10 300 м 
[Sc]
+2.2 +0.9 91 1013  1.5  750  299  +2.2       
06 23.05.19 060 (СВ) 6-10{11}  26000 м  {дождь}  6/4 600 м кучево-дожд., верхняя 
[Cb calv|Ci fib]
+4.7 -1.7 63 +2  1014.4  1.5  751  298  +2.2      влажная 
09 23.05.19 030 (СВ) 4{10}  30000 м    8/4 600 м верхняя 
[Cu hum|Ci fib]
+6.6 -2.4 53 +5  1015.5  1.1  752  296           
12 23.05.19 070 (В) 5{11}  40000 м    8/6 600 м кучево-дожд., средняя, верхняя 
[Cb calv|Ac trans|Ci fib]
+7.9 -1.7 51 +6  1015.9  0.5  752  295           
15 23.05.19 050 (СВ) 35000 м    6/3 600 м средняя, верхняя 
[Sc|Ac trans|Ci fib]
+7.3 -3.3 47 +6  1015.8  -0.1  752  295           
18 23.05.19 060 (СВ) 29000 м    6/3 600 м средняя 
[Sc|Ac trans]
+4.6 -3.2 57 +3  1016.6  0.6  752  298    +8.5       
21 23.05.19 090 (В) 20000 м    3/0 средняя 
[Ac trans]
+2.2 -2.2 73 +1  1017.8  1.1  753  301           
00 24.05.19 тихо ()   20000 м    3/3 <0100 м средняя 
[Ac trans]
-2.2 -3.6 90 -2  1018.4  0.4  753  306           
03 24.05.19 090 (В) 23000 м    9/0 средняя, верхняя 
[Ac trans|Ci fib]
+2.9 -1.8 71 +2  1018.7  0.5  754  301  -2.8         
06 24.05.19 100 (В) 30000 м    6/0 верхняя 
[Ci fib]
+4.8 -1.8 62 +3  1018.6  754  299  -2.8        влажная 
09 24.05.19 090 (В) 30000 м    9/0 верхняя 
[Ci fib]
+6.1 -1.5 58 +4  1017.7  -0.8  753  297           
12 24.05.19 110 (В) 30000 м    9/0 средняя, верхняя 
[Ac trans|Ci fib]
+6.8 -2.7 51 +5  1016.5  -1.2  752  296           
15 24.05.19 100 (В) 30000 м    9/0 средняя 
[Ac trans]
+6.3 -1.2 59 +5  1014.8  -1.7  751  296           
18 24.05.19 060 (СВ) 30000 м    10/0 средняя 
[Ac trans]
+5.9 +0.3 67 +6  1013.6  -1.2  750  296    +7.3       
21 24.05.19 120 (ЮВ) 20000 м    10/0 средняя 
[Ac trans]
+6.8 -0.8 58 +6  1012.5  -1  749  295           
00 25.05.19 100 (В) 20000 м    10/0 средняя 
[Ac trans]
+6.4 +0.7 67 +6  1010.8  -1.7  748  294           
Время (UTC), дата Ветер
(°,м/с) 
Видим.   Явления Облачность Т
(°С)
Тd
(°С)
f(%) Тe
(°С)
Pmin
(гПа)
dP
(гПа)
Po
(мм)
O2
(г/м3)
Тmin Tmax R s Состояние
почвы

Для получения пояснительной информации подведите курсор к названию столбца.

ПОГОДА в Петрозаводске - архив

Всё, что Вы хотите узнать о погоде в Петрозаводске - удобно и подробно!

Выберите нужную дату (начиная с 1 января 2018* года) и нажмите кнопку "Найти".
Будут отображены архивные сводки погоды по пункту Петрозаводск, начиная с указанной даты.


Отображать данные в формате CSV (для использования в таблицах Excel)


Внимание! Наш архив погоды предназначен исключительно для личного некоммерческого использования в познавательных целях. Если Вам необходимы официальные справки о состоянии погоды (для производственных, юридических, коммерческих и т.п. целей), обращайтесь в органы Росгидромета.

*Примечание: данная дата относится к архиву по метеостанциям СССР (Россия, СНГ, Балтия).
Архив по метеостанциям Зарубежной Европы и Азии (кроме Китая) хранится 10 дней, по другим регионам земного шара (Китай, Африка, Америка, Австралия, Океания) - 1 день.

Петрозаводск - район местоположения метеостанции


Название, широта, долгота, высота метеостанции:
Петрозаводск 61.8°ш. 34.3°д. 110 м над ур. моря [Российская Федерация]

Дополнительная информация

В oтличие oт бoльшинства пoгoдных сайтoв мы публикуем пoдрoбную метеoинфoрмацию в детальнoм прoфессиoнальнoм фoрмате.

Характеристики температуры и влажнoсти вoздуха измеряются на высoте 2 м в тени вдали oт зданий и деревьев.
Скoрoсть ветра измеряется на высoте 10 м (на урoвне рoста челoвека скoрoсть ветра ниже в 1.5-2 раза). Если метеoстанция нахoдится в гoрoде или в лесу, тo скoрoсть ветра занижена на 2-4 м/с пo сравнению с oткрытым местoм. Скoрoсть ветра над акватoриями крупных рек и oзёр, а также на вершинах хoлмoв на 2-5 м/с выше, чем в oбычных услoвиях.
Атмoсфернoе давление в разных тoчках местнoсти мoжет значительнo oтличаться oт давления на метеoстанции, в зависимoсти oт услoвий рельефа (при пoдъёме на 10 м давление пoнижается примернo на 1 мм рт.ст.).